DateTimeUTC,F1_A11,F1_S11,BsB_S11,BsG_S11,BsR_S11,BbsB_S11,BbsG_S11,BbsR_S11,BaB_A11,BaG_A11,BaR_A11,Tu_S11,T_S11,Uu_S11,U_S11,P_S11,T1_A11
2021-10-12T08:00:00Z,00000200,21000000,,,,,,,0000.28,0000.17,-000.05,16.5,23.8,,00.0,0670.9,30.9
2021-10-12T08:01:00Z,00000200,21000000,,,,,,,0000.13,-000.03,0000.04,16.5,23.9,,00.0,0670.9,30.9
2021-10-12T08:02:00Z,00000200,21000000,,,,,,,0000.48,0000.42,0000.45,16.5,23.9,,00.0,0670.9,30.9
2021-10-12T08:03:00Z,00000200,61000000,,,,,,,0000.68,0000.75,0000.45,16.6,23.9,,00.0,0670.9,30.9
2021-10-12T08:04:00Z,00000200,41000000,0002.24,0001.66,0001.20,0000.17,0000.21,0000.49,0000.59,0000.34,0000.44,17.0,23.7,,00.0,0671.9,30.9
2021-10-12T08:05:00Z,00000200,01000000,0001.49,0001.44,0000.97,0000.64,0000.25,-000.14,0000.22,0000.59,0000.12,17.1,23.7,,00.0,0671.9,30.9
2021-10-12T08:06:00Z,00000200,01000000,0001.88,0001.42,0000.85,0000.78,0000.15,0000.13,0000.75,0000.43,0000.17,17.1,23.7,,00.0,0671.9,30.9
2021-10-12T08:07:00Z,00000200,01000000,0002.39,0001.27,0000.89,0000.33,0000.30,-000.19,0000.09,0000.32,0000.62,17.2,23.7,,00.0,0671.9,30.9
2021-10-12T08:08:00Z,00000200,01000000,0001.26,0001.60,0000.90,0000.68,0000.43,0000.24,0000.34,0000.12,-000.25,17.3,23.8,,00.0,0672.0,31.0
2021-10-12T08:09:00Z,00000200,01000000,0002.36,0001.16,0001.02,0000.53,0000.24,0000.14,0000.04,0000.22,0000.37,17.3,23.8,,00.0,0672.0,30.9
2021-10-12T08:10:00Z,00000200,01000000,0001.90,0001.26,0000.71,0001.04,-000.14,-000.23,-000.11,-000.21,-000.48,17.2,23.8,,00.0,0672.0,30.9
2021-10-12T08:11:00Z,00000200,01000000,0002.41,0002.05,0000.96,0000.26,0000.13,0000.10,0000.81,0000.58,0000.54,17.2,23.8,,00.0,0672.0,30.9
2021-10-12T08:12:00Z,00000200,01000000,0001.94,0001.69,0001.25,0000.34,0000.36,0000.34,0000.11,0000.08,0000.26,17.1,23.7,,00.0,0671.9,30.9
2021-10-12T08:13:00Z,00000200,01000000,0001.95,0001.50,0001.10,0000.45,0000.42,0000.07,0000.26,0000.24,0000.02,17.1,23.7,,00.0,0671.9,30.9
2021-10-12T08:14:00Z,00000200,01000000,0002.53,0001.33,0000.87,0000.83,0000.05,0000.06,0000.59,0000.27,0000.57,17.1,23.7,,00.0,0671.9,30.9
2021-10-12T08:15:00Z,00000200,01000000,0000.78,0001.23,0000.82,0000.69,0000.09,0000.00,0000.22,0000.32,0000.32,17.1,23.7,,00.0,0671.9,30.9
2021-10-12T08:16:00Z,00000200,01000000,0002.45,0001.75,0000.50,0000.02,0000.26,0000.19,-000.18,0000.33,-000.07,17.2,23.7,,00.0,0671.9,30.9
2021-10-12T08:17:00Z,00000200,01000000,0001.45,0001.25,0000.74,0000.67,0000.20,0000.28,-000.03,-000.19,0000.22,17.2,23.7,,00.0,0671.9,30.9
2021-10-12T08:18:00Z,00000200,01000000,0002.05,0001.29,0001.05,0000.69,0000.10,0000.11,0000.69,0000.15,-000.48,17.2,23.7,,00.0,0671.9,30.9
2021-10-12T08:19:00Z,00000200,01000000,0001.97,0001.52,0001.08,0000.74,0000.15,0000.36,0000.46,0000.54,0000.76,17.3,23.8,,00.0,0671.9,31.0
2021-10-12T08:20:00Z,00000200,01000000,0002.07,0001.13,0001.00,0000.25,-000.12,0000.13,0000.21,0000.20,0000.19,17.4,23.8,,00.0,0671.9,30.9
2021-10-12T08:21:00Z,00000200,01000000,0002.07,0001.19,0000.89,0000.24,0000.07,0000.05,0000.54,0000.85,0000.01,17.4,23.8,,00.0,0671.9,31.0
2021-10-12T08:22:00Z,00000200,01000000,0002.30,0001.45,0001.08,0000.26,0000.30,0000.45,0001.22,0000.91,0000.90,17.3,23.8,,00.0,0671.8,30.9
2021-10-12T08:23:00Z,00000200,01000000,0003.28,0001.32,0000.76,0000.92,-000.01,-000.13,-000.21,-000.20,-000.15,17.3,23.8,,00.0,0671.8,30.9
2021-10-12T08:24:00Z,00000200,01000000,0002.37,0001.43,0000.75,0000.93,0000.14,0000.14,0000.16,-000.09,0000.30,17.2,23.8,,00.0,0671.8,30.9
2021-10-12T08:25:00Z,00000200,01000000,0002.31,0001.59,0001.15,0000.83,0000.12,0000.25,0000.33,0000.54,-000.01,17.1,23.7,,00.0,0671.8,30.9
2021-10-12T08:26:00Z,00000200,01000000,0002.43,0001.87,0001.31,0000.63,0000.32,0000.18,0000.92,0000.67,0000.54,17.0,23.7,,00.0,0671.8,30.9
2021-10-12T08:27:00Z,00000200,01000000,0002.74,0001.35,0001.38,0000.43,0000.08,0000.12,0000.61,0000.42,0000.45,17.0,23.6,,00.0,0671.8,30.9
2021-10-12T08:28:00Z,00000200,01000000,0002.52,0001.49,0000.96,0001.08,0000.23,0000.02,0000.56,0000.90,0000.25,17.0,23.6,,00.0,0671.8,30.9
2021-10-12T08:29:00Z,00000200,01000000,0002.63,0001.59,0000.97,-000.38,0000.40,0000.03,0000.52,0000.31,0000.63,16.9,23.6,,00.0,0671.8,30.9
2021-10-12T08:30:00Z,00000200,01000000,0002.08,0000.97,0000.70,0001.37,0000.20,0000.11,0000.41,0000.49,0000.17,17.0,23.6,,00.0,0671.8,30.9
2021-10-12T08:31:00Z,00000200,01000000,0001.86,0000.98,0001.12,0000.38,0000.13,0000.28,0000.49,0000.18,0000.48,17.0,23.6,,00.0,0671.8,30.9
2021-10-12T08:32:00Z,00000200,01000000,0001.12,0000.59,0000.37,-000.22,0000.00,0000.18,0000.04,-000.21,0000.04,17.1,23.6,,00.0,0671.8,30.9
2021-10-12T08:33:00Z,00000200,01000000,0001.10,0000.65,0000.10,0001.00,-000.11,-000.01,0000.16,0000.41,-000.31,17.1,23.7,,00.0,0671.8,30.9
2021-10-12T08:34:00Z,00000200,01000000,0001.23,0000.38,0000.13,-000.28,0000.19,-000.19,-000.47,-000.30,0000.13,17.2,23.7,,00.0,0671.8,30.9
2021-10-12T08:35:00Z,00000200,01000000,0000.68,0000.25,0000.35,0000.79,0000.13,-000.12,-000.13,-000.24,-000.08,17.3,23.7,,00.0,0671.8,30.9
2021-10-12T08:36:00Z,00000200,01000000,0001.32,0000.58,0000.34,0000.30,-000.12,0000.02,0000.09,-000.00,-000.32,17.3,23.7,,00.0,0671.8,30.9
2021-10-12T08:37:00Z,00000200,01000000,0000.54,0000.79,0000.57,0000.33,-000.06,0000.26,0000.13,0000.39,0000.25,17.3,23.7,,00.0,0671.8,30.9
2021-10-12T08:38:00Z,00000200,01000000,0000.75,0000.61,0000.27,0000.52,-000.14,0000.29,0000.69,0000.28,0000.23,17.4,23.8,,00.0,0671.8,30.9
2021-10-12T08:39:00Z,00000200,01000000,0000.50,0000.45,0000.23,0000.08,0000.15,-000.26,-000.07,0000.25,-000.04,17.3,23.8,,00.0,0671.8,30.9
2021-10-12T08:40:00Z,00000200,01000000,0000.95,0000.59,0000.64,0000.21,-000.24,0000.12,0000.17,0000.18,0000.23,17.3,23.8,,00.0,0671.8,30.9
2021-10-12T08:41:00Z,00000200,01000000,0000.69,0000.55,0000.30,0000.74,-000.06,-000.22,0000.57,-000.02,0000.25,17.2,23.7,,00.0,0671.8,30.9
2021-10-12T08:42:00Z,00000200,01000000,0000.81,0000.21,0000.31,0000.30,-000.07,0000.11,-000.25,0000.13,-000.09,17.2,23.7,,00.0,0671.8,30.9
2021-10-12T08:43:00Z,00000200,01000000,0000.02,0000.67,0000.21,-000.28,-000.08,-000.18,0000.50,0000.21,0000.36,17.1,23.7,,00.0,0671.7,30.9
2021-10-12T08:44:00Z,00000200,01000000,0000.75,0000.53,0000.33,0000.57,-000.08,-000.12,-000.19,0000.07,0000.07,17.1,23.7,,00.0,0671.7,30.9
2021-10-12T08:45:00Z,00000200,01000000,0000.99,0000.83,0000.29,0000.56,0000.17,0000.09,0000.75,0000.52,0000.54,17.2,23.7,,00.0,0671.7,30.9
2021-10-12T08:46:00Z,00000200,01000000,0000.85,0000.84,0000.54,0000.23,0000.11,0000.28,0000.25,0000.25,-000.14,17.2,23.7,,00.0,0671.7,30.9
2021-10-12T08:47:00Z,00000200,01000000,0001.19,0000.74,0000.39,0000.66,0000.05,0000.01,0000.20,0000.32,0000.35,17.3,23.7,,00.0,0671.7,30.9
2021-10-12T08:48:00Z,00000200,01000000,0000.75,0000.34,0000.72,0000.29,-000.19,0000.36,0000.02,-000.03,-000.15,17.3,23.7,,00.0,0671.7,30.9
2021-10-12T08:49:00Z,00000200,01000000,0001.71,0000.90,0000.71,0001.16,0000.15,0000.25,0000.01,0000.28,0000.69,17.3,23.8,,00.0,0671.7,30.9
2021-10-12T08:50:00Z,00000200,01000000,0001.97,0000.72,0000.39,0000.59,0000.06,0000.11,0000.38,-000.17,-000.37,17.4,23.8,,00.0,0671.7,30.9
2021-10-12T08:51:00Z,00000200,01000000,0002.06,0001.59,0000.98,0000.78,0000.03,-000.01,0000.50,0000.59,0000.22,17.4,23.8,,00.0,0671.7,30.9
2021-10-12T08:52:00Z,00000200,01000000,0000.57,0000.99,0001.07,0000.54,0000.05,0000.25,0000.17,0000.21,0000.04,17.4,23.8,,00.0,0671.7,31.0
2021-10-12T08:53:00Z,00000200,01000000,0000.74,0000.51,0000.58,0000.68,0000.22,0000.01,0000.24,0000.04,0000.29,17.4,23.8,,00.0,0671.7,30.9
2021-10-12T08:54:00Z,00000200,01000000,0002.77,0001.16,0000.42,0000.09,0000.19,0000.02,-000.04,0000.21,-000.14,17.3,23.8,,00.0,0671.7,30.9
2021-10-12T08:55:00Z,00000200,01000000,0002.02,0001.06,0000.64,0000.53,0000.34,0000.28,0000.46,0000.05,0000.14,17.2,23.8,,00.0,0671.7,30.9
2021-10-12T08:56:00Z,00000200,01000000,0001.10,0000.81,0000.80,0000.28,0000.18,-000.08,0000.08,0000.35,0000.16,17.1,23.7,,00.0,0671.7,30.9
2021-10-12T08:57:00Z,00000200,41000000,,,,,,,0000.29,-000.11,0000.15,17.1,23.7,,00.0,0671.7,30.9
2021-10-12T08:58:00Z,00000200,61000000,,,,,,,-000.55,-000.01,-000.33,16.7,23.8,,00.0,0670.7,30.9
2021-10-12T08:59:00Z,00000200,21000000,,,,,,,0000.24,0000.12,0000.42,16.7,23.9,,00.0,0670.7,30.9
